Regional Weather Roundup
Issued by NWS Austin/San Antonio, TX

Home | Current Version | Previous Version | Text Only | Print | Product List | Glossary On
Versions: 1 2 3 4 5 6 7 8 9 10 11 12 13 14 15 16 17 18 19 20 21 22 23 24 25 26 27 28 29 30 31 32 33 34 35 36 37 38 39 40 41 42 43 44 45 46 47 48 49 50
000
ASUS44 KEWX 170301
RWREWX
SOUTH TEXAS REGIONAL WEATHER ROUNDUP
NATIONAL WEATHER SERVICE AUSTIN/SAN ANTONIO TX
900 PM CST TUE JAN 16 2018

NOTE: "FAIR" INDICATED FEW OR NO CLOUDS BELOW 12,000 FEET WITH NO
SIGNIFICANT WEATHER AND/OR OBSTRUCTIONS TO VISIBILITY.

* - THESE STATIONS ARE NOT NWS OR FAA STATIONS...AND ARE NOT SUBJECT
    TO NWS AND FAA QUALITY CONTROL.

TXZ171-172-183>190-170400-
TEXAS HILL COUNTRY AND EDWARDS PLATEAU

CITY           SKY/WX    TMP DP  RH WIND       PRES   REMARKS
JUNCTION       CLOUDY    27  -2  28 N8        30.66S WCI  19
*LLANO         CLOUDY    30   1  29 N6        30.74S WCI  24
BURNET         CLOUDY    26   1  34 N8        30.71R WCI  18
*HORSESHOE BAY CLOUDY    28   4  35 N7        30.71R WCI  21
*KERRVILLE     CLOUDY    25   1  36 N13       30.66R WCI  13
*FREDERICKSBRG CLOUDY    25  -4  28 N8        30.66S WCI  16
*ROCKSPRINGS     N/A     25  -4  28 NE7G15    30.67R WCI  17
*BOERNE STAGE  CLOUDY    27   3  36 N10       30.68R WCI  17
*CASTROVILLE   CLOUDY    30   6  36 N7        30.72R WCI  23
HONDO          CLOUDY    30  16  56 NE10      30.70R WCI  21
*UVALDE        CLOUDY    32   5  32 N7        30.71R WCI  26
DEL RIO        CLOUDY    35   0  22 N6        30.69R WCI  30
LAUGHLIN AFB   CLOUDY    34  -3  20 N7        30.69R WCI  28
CARRIZO SPRGS  CLOUDY    34  12  40 CALM      30.71S
*EAGLE PASS    CLOUDY    36   1  23 NW6       30.70S WCI  31
*FAITH RANCH   CLOUDY    34  12  40 N5        30.71R WCI  30
$$

TXZ173-191>194-202-209-217>225-228-170400-
CENTRAL AND SOUTH CENTRAL TEXAS

CITY           SKY/WX    TMP DP  RH WIND       PRES   REMARKS
GEORGETOWN     CLOUDY    26   6  42 NW8       30.74R WCI  18
AUSTIN/BERGSTM CLOUDY    26  12  55 N13       30.73R WCI  15
AUSTIN/MABRY   CLOUDY    27   4  37 N6        30.74R WCI  20
*AUSTIN/EXEC   CLOUDY    27   7  43 N12       30.73S WCI  16
*LAGO VISTA    CLOUDY    26   4  37 MISG      30.69S
SAN MARCOS     CLOUDY    27  13  55 N13       30.73R WCI  16
NEW BRAUNFELS  CLOUDY    27  10  49 N14       30.71R WCI  16
RANDOLPH AFB   CLOUDY    29   6  38 N8        30.70R WCI  21
PT SAN ANTONIO CLOUDY    29   5  35 N15       30.68R WCI  18
SAN ANTONIO    CLOUDY    28   7  41 N12       30.70R WCI  18
STINSON FIELD  CLOUDY    31   9  39 N13G23    30.70R WCI  21
*LA GRANGE     CLOUDY    27  12  53 N12       30.72R WCI  17
*GIDDINGS      CLOUDY    25  11  54 N8G18     30.74R WCI  16
*GONZALES      CLOUDY    26  14  60 N12       30.73R WCI  16
$$

TXZ163>164-176>182-195>201-210>213-226-227-235-170400-
SOUTHEAST TEXAS

CITY           SKY/WX    TMP DP  RH WIND       PRES   REMARKS
COLLEGE STN    CLOUDY    25  10  53 N14G24    30.73R WCI  13
*BRYAN         CLOUDY    24  10  53 N7        30.75S WCI  16
*CALDWELL      CLOUDY    24  10  55 N7        30.74S WCI  16
*CROCKETT        N/A     23   9  54 CALM      30.76R
*BRENHAM       CLOUDY    27  16  63 N17       30.74R WCI  14
HUNTSVILLE     CLOUDY    24  13  62 N12G20    30.71R WCI  13
CONROE         CLOUDY    25  14  63 N13G22    30.71R WCI  14
HOUSTON BUSH   CLOUDY    26  17  68 N14       30.71R WCI  14
HOUSTON HOBBY  CLOUDY    26  18  71 N18       30.69R WCI  13
*HOUSTON SW AP CLOUDY    25  19  76 MISG      30.71R
PEARLAND       CLOUDY    26  19  74 N13G22    30.71R WCI  15
HOUSTON HOOKS  CLOUDY    26  15  63 N9        30.71R WCI  17
ELLINGTON FLD  CLOUDY    27  18  69 N6        30.71R WCI  20
SUGAR LAND     CLOUDY    27  17  66 N17       30.70R WCI  14
*HOUSTON EXEC  CLOUDY    25  18  74 CALM      30.72R
*CLEVELAND MUN CLOUDY    26  16  65 N9        30.71R WCI  16
*WHARTON       CLOUDY    25  19  76 CALM      30.72R
*COLUMBUS      CLOUDY    26  14  61 N10G17    30.73R WCI  16
*EAGLE LAKE    CLOUDY    27  20  73 MISG      30.71R
$$

TXZ214>216-236>238-170400-
THE UPPER TEXAS COAST

CITY           SKY/WX    TMP DP  RH WIND       PRES   REMARKS
*ORANGE        CLOUDY    28  24  84 N9        30.67S WCI  19
PORT ARTHUR    CLOUDY    28  21  75 N17G24    30.66R WCI  16
GALVESTON      CLOUDY    31  22  69 N28G35    30.68R WCI  17
ANGLETON       CLOUDY    27  20  75 N15G21    30.69R WCI  15
*BAY CITY      CLOUDY    27  23  84 N8        30.69R WCI  19
PALACIOS       CLOUDY    27  20  75 N21G30    30.70R WCI  13
$$

TXZ229>234-239>247-170400-
TEXAS COASTAL BEND AND RIO GRANDE PLAINS

CITY           SKY/WX    TMP DP  RH WIND       PRES   REMARKS
VICTORIA       CLOUDY    27  18  69 N12       30.72R WCI  17
*BEEVILLE      CLOUDY    30  15  53 N9        30.71R WCI  21
ROCKPORT       CLOUDY    29  19  66 N20       30.71R WCI  16
*PORT ARANSAS  NOT AVBL
*PORT LAVACA   CLOUDY    27  21  77 N15       30.71R WCI  16
*INGLESIDE     CLOUDY    31  21  66 N14G20    30.71R WCI  20
CORPUS CHRISTI CLOUDY    30  17  58 N18       30.71R WCI  18
CORPUS NAS     CLOUDY    32  20  61 N21G30    30.71R WCI  20
*ROBSTOWN      NOT AVBL
ALICE          CLOUDY    31  15  52 N10       30.73R WCI  22
KINGSVILLE NAS CLOUDY    32  14  47 N15G23    30.72R WCI  22
COTULLA        CLOUDY    34   9  35 N8        30.73R WCI  27
LAREDO         CLOUDY    33  21  61 N6        30.73R WCI  28
$$

TXZ248>255-170400-
DEEP SOUTH TEXAS

CITY           SKY/WX    TMP DP  RH WIND       PRES   REMARKS
BROWNSVILLE    NOT AVBL
PORT ISABEL    NOT AVBL
*SOUTH PADRE   NOT AVBL
HARLINGEN      NOT AVBL
*HEBBRONVILLE  CLOUDY    29  26  88 N5        30.70R WCI  24
MCALLEN        NOT AVBL
*WESLACO       LGT RAIN  30  28  90 N12       30.71R WCI  20
FALFURRIAS     CLOUDY    32  24  71 N9        30.72R WCI  24
EDINBURG       CLOUDY    32  28  84 N8        30.73R WCI  25
*ZAPATA        CLOUDY    33  26  73 N3        30.72R
$$

TXZ213>215-236>238-242>244-246-247-251-254-255-170400-
CMAN STATIONS

STATION/POSITION TIME  TEMP    WIND        PRES    WAVE
                       AIR SEA DIR/SP/G            HT/PER
                 (UTC) (F)     (DEG/KT/KT) (MB)    (FT/S)
SABINE PASS      0230   30 50  360/ 14/ 22 1039.4
SEA RIM ST PARK  0200   27     360/ 12/ 14 1038.1
NORTH JETTY/GLS  0230      45  350/ 22/ 25 1037.6
EAGLE POINT      0230   28 44   10/  9/ 12 1039.2
MORGANS POINT    0224      48   10/  5/  8 1039.0
PORT O`CONNOR    0230   29 38  360/ 21/ 26 1039.6
MALAQUITE BEACH  0230   31 52  340/ 19/ 25 1039.2
BAFFIN BAY       0230   31 47  340/ 18/ 22 1040.1
PORT ISABEL      0230   31 57  330/ 17/ 25 1036.9
$$



USA.gov is the U.S. government's official web portal to all federal, state and local government web resources and services.